Showing default

AURORA 1, 2876

Orbit data source: Space-Track

AURORA 1, 2876 is an American payload satellite in LEO that was launched on Thu, 29 Jun 1967 UTC via a THOR BURNER 2 launch vehicle from the Air Force Western Test Range (AFWTR). Payloads include a variety of satellites, spacecraft, and rockets equipped with specific instruments for various scientific and technological missions. These include communications satellites like Starlink; space stations such as the ISS; scientific satellites like the Hubble; Earth observation satellites from companies like Planet Labs, Umbra, and HawkEye 360; GPS; miniature CubeSats for education and research; and military/defense satellites.

Loading next visibility...
AURORA 1 details
Identifier
2876, 1967-065B
Orbit
LEO
Last TLE update1 day ago
Origin
Flag of USONR/RICE (US)
ManufacturerRice
MissionCivil Science
Bus & MotorRICE AURORA, Unknown motor
Mass21 kg wet, 21 kg dry
Launch date (UTC)
1967-06-29 (58 years ago)
Launch vehicle
THOR BURNER 2
Launch site
Air Force Western Test Range (AFWTR)
Object type
Payload
Rocket body
Debris
Shape & HBRBox, 0.6 m
Radar Cross Section0.360 m², Medium (>0.1 m² and < 1m²)

Expand to show TLE details & history

TLE from 1 day ago
0 AURORA 1
1 02876U 67065B   25036.67516180 -.00000008  00000-0 -61892-2 0  9995
2 02876  90.0196 313.4535 0071207 216.0398 143.5624  8.36560829348085
Epoch: 2025-02-05T16:12Z
Definitive object data (Epoch: 2025-02-05T16:12:13.979Z)
Latitude-0.00001°
Longitude-65.66744°
Altitude3,933.224 km
Speed6.2 km/s
True Right ascension20h 53m 48s
True Declination0° 00' 00"
Sunlit
Object was in daylight at TLE epoch
Visualization TLE readout
Latitude23.4175°
Longitude-65.67497°
Altitude3,945.948 km
Speed6.194 km/s
Apparent Right ascension19h 37m 04s
Apparent Declination0° 04' 29"
Sunlit
Object is in daylight
Visualization observer readout
Local Sidereal Time04:59:15
Azimuth307.998° NW
Elevation-36.254°
Doppler factor1
Orbital elements
Apogee altitude3,943.001 km
Perigee altitude3,797.053 km
Semi-major axis10,248.164 km
Eccentricity0.0071207
Inclination90.0196°
RAAN313.4535°
Arg. of periapsis216.0398°
True anomaly144.04359°
Mean anomaly143.5624°
Eccentric anomaly143.80334°
Mean motion2.09206 °/min
BSTAR-0.0061892
Orbital period172.08 mins
Loading maneuver chart data...
Loading historical data...
Loading historical data...
Loading historical data...
Loading historical data...
Loading historical data...
Loading historical data...
Loading historical data...

AURORA 1 Visibility forecast

Observer location: undefined°, undefined

Span
Click to sort rows by Start time (UTC) header in descending order
Start Az.
Max El. time (UTC)
Max El. Az.
Max El.
End time (UTC)
End Az.
27 mins2025-02-07 03:28:47.446Z15.881° NNE2025-02-07 03:42:47.446Z62.876° ENE19.955°2025-02-07 03:55:47.446Z107.056° ESE
38 mins2025-02-07 06:19:47.446Z1.951° NNE2025-02-07 06:37:47.446Z50.231° ENE44.933°2025-02-07 06:57:47.446Z185.346° SSW
26 mins2025-02-07 09:12:47.446Z347.575° N2025-02-07 09:25:47.446Z302.522° NW23.626°2025-02-07 09:38:47.446Z257.973° W
36 mins2025-02-07 17:02:47.446Z139.319° SSE2025-02-07 17:20:47.446Z67.667° E38.271°2025-02-07 17:38:47.446Z3.506° NNE
37 mins2025-02-07 19:53:47.446Z209.463° SW2025-02-07 20:10:47.446Z276.247° WNW37.004°2025-02-07 20:30:47.446Z353.784° N
|